FLOCK 3R-2 (43748 NORAD) Tracking and Keplerian Element Data

This shows tracking and keplerian element data for the satellite.

Feedback or suggestion? Click here.




ElementValue
Catalog43748
NameFLOCK 3R-2
Epoch Orbit458
Epoch Day363.19296008
Epoch Year2018
RAAN68.2469
Inclination97.4814
Eccentricity0.0020758
Argument of Perigee219.2727
Mean Anonmoly214.8596
Mean Motion15.26781042
Decay Rate6.65E-06
L11 43748U 18096AF 18363.19296008 .00000665 00000-0 27996-4 0 9990
L22 43748 97.4814 68.2469 0020758 219.2727 214.8596 15.26781042 4586

Live tracking and technical data element details for FLOCK 3R-2 (NORAD 43748). FLOCK 3R-2 can be tracked NOW for your location showing map with azimuth and elevation plus other details from your city location.

Track the satellite on the map from your city or location and see movement details for azimuth, elevation, latitude, longitude, range, height, and movement on the map or in text.







IsCatalogInMostPopularTable: catalog: 43748, numindb: 20
Update: records affected: 1



GetName: 43748 FLOCK 3R-2

Hit Count: updated at: Fri, 18 Jan 2019 21:36:29 GMT